Weather History for Sussex, NJ

Change the Weather History Date:

Wednesday, November 23, 2011

  Actual Average Record
Temperature  
Mean Temperature 42 °F -  
Max Temperature 46 °F 44 °F 65 °F (1960)
Min Temperature 39 °F 25 °F 13 °F (1964)
Degree Days  
Heating Degree Days 22    
Moisture  
Dew Point 39 °F    
Average Humidity 86    
Maximum Humidity 93    
Minimum Humidity 65    
Precipitation  
Precipitation 1.06 in - - ()
Sea Level Pressure  
Sea Level Pressure 29.76 in    
Wind  
Wind Speed 8 mph (NNE)    
Max Wind Speed 17 mph    
Max Gust Speed 25 mph    
Visibility 8 miles    
Events Rain    
Averages and records for this station are not official NWS values.
T = Trace of Precipitation, MM = Missing Value Source: NWS Daily Summary

Daily Weather History Graph

Daily Weather History Graph

Search for Another Location

Airport:

Trip Planner

Search our weather history database for the weather conditions in past years. The results will help you decide how hot, cold, wet, or windy it might be!

Date:

Astronomy

Nov. 23, 2011 Rise Set
Actual Time 6:55 AM EST 4:33 PM EST
Civil Twilight 6:25 AM EST 5:04 PM EST
Nautical Twilight 5:51 AM EST 5:37 PM EST
Astronomical Twilight 5:18 AM EST 6:10 PM EST
Moon 4:56 AM EST (11/23) 3:13 PM EST (11/23)
Length of Visible Light 10h 38m
Length of Day
9h 38m
Waning Crescent, 4% of the Moon is Illuminated
Nov 23
Waning Crescent
Nov 25
New
Dec 2
First Quarter
Dec 10
Full
Dec 17
Last Quarter

Hourly Weather History & Observations

Time (EST) Temp. Windchill Dew Point Humidity Pressure Visibility Wind Dir Wind Speed Gust Speed Precip Events Conditions
12:16 AM 42.8 °F 41.1 °F 41.0 °F 93% 29.93 in 7.0 mi NE 3.5 mph - 0.02 in Rain Light Rain
12:44 AM 42.8 °F 41.1 °F 41.0 °F 93% 29.90 in 9.0 mi NE 3.5 mph - 0.04 in Rain Light Rain
1:53 AM 44.1 °F 39.0 °F 42.1 °F 93% 29.85 in 5.0 mi NNE 9.2 mph - 0.09 in Rain Rain
2:40 AM 42.8 °F 36.6 °F 41.0 °F 93% 29.79 in 2.5 mi NNE 11.5 mph - 0.24 in Rain Heavy Rain
2:53 AM 43.0 °F 35.4 °F 41.0 °F 93% 29.79 in 3.0 mi NE 16.1 mph 20.7 mph 0.30 in Rain Rain
3:20 AM 42.8 °F 37.0 °F 41.0 °F 93% 29.74 in 4.0 mi NNE 10.4 mph - 0.10 in Rain Rain
3:28 AM 42.8 °F 35.4 °F 41.0 °F 93% 29.73 in 5.0 mi NNE 15.0 mph 20.7 mph 0.11 in Rain Light Rain
3:53 AM 43.0 °F 36.0 °F 41.0 °F 93% 29.72 in 5.0 mi NNE 13.8 mph 18.4 mph 0.16 in Rain Rain
4:12 AM 42.8 °F 37.5 °F 41.0 °F 93% 29.73 in 2.0 mi NE 9.2 mph - 0.18 in Rain Heavy Rain
4:18 AM 42.8 °F 37.5 °F 41.0 °F 93% 29.74 in 1.5 mi NNW 9.2 mph 17.3 mph 0.24 in Rain Heavy Rain
4:21 AM 42.8 °F 37.0 °F 41.0 °F 93% 29.74 in 2.0 mi NNE 10.4 mph 17.3 mph 0.26 in Rain Heavy Rain
4:29 AM 42.8 °F 37.5 °F 41.0 °F 93% 29.73 in 3.0 mi NE 9.2 mph - 0.30 in Rain Heavy Rain
4:51 AM 42.8 °F 38.0 °F 41.0 °F 93% 29.72 in 5.0 mi NE 8.1 mph - 0.33 in Rain Rain
4:53 AM 43.0 °F 38.8 °F 41.0 °F 93% 29.72 in 5.0 mi NE 6.9 mph - 0.34 in Rain Rain
4:57 AM 42.8 °F 40.1 °F 41.0 °F 93% 29.72 in 6.0 mi NE 4.6 mph - 0.00 in Rain Light Rain
5:53 AM 42.1 °F 35.7 °F 39.9 °F 92% 29.69 in 10.0 mi NE 11.5 mph - 0.07 in Rain Light Rain
6:29 AM 42.8 °F 38.6 °F 39.2 °F 87% 29.67 in 8.0 mi NE 6.9 mph - 0.02 in Rain Light Rain
6:53 AM 42.1 °F 37.1 °F 39.9 °F 92% 29.69 in 10.0 mi NE 8.1 mph - 0.03 in Rain Light Rain
7:21 AM 42.8 °F 37.0 °F 39.2 °F 87% 29.67 in 10.0 mi NNE 10.4 mph - 0.00 in   Overcast
7:53 AM 42.1 °F 37.1 °F 39.9 °F 92% 29.67 in 10.0 mi NE 8.1 mph - 0.00 in   Overcast
8:26 AM 42.8 °F 38.6 °F 39.2 °F 87% 29.66 in 10.0 mi NE 6.9 mph - N/A   Overcast
8:53 AM 42.1 °F 37.1 °F 39.9 °F 92% 29.66 in 10.0 mi NE 8.1 mph - N/A   Overcast
9:02 AM 42.8 °F 36.6 °F 39.2 °F 87% 29.65 in 10.0 mi NE 11.5 mph - N/A   Overcast
9:53 AM 42.1 °F 36.1 °F 39.9 °F 92% 29.65 in 10.0 mi NE 10.4 mph - N/A   Overcast
10:33 AM 42.8 °F - 39.2 °F 87% 29.64 in 10.0 mi North - - 0.01 in   Overcast
10:53 AM 42.1 °F 36.6 °F 39.0 °F 89% 29.64 in 9.0 mi NE 9.2 mph - 0.01 in   Overcast
11:16 AM 41.0 °F 36.4 °F 39.2 °F 93% 29.62 in 5.0 mi ENE 6.9 mph - 0.01 in Rain Rain
11:25 AM 41.0 °F 37.1 °F 39.2 °F 93% 29.62 in 3.0 mi ENE 5.8 mph - 0.04 in Rain Rain
11:53 AM 43.0 °F - 39.9 °F 89% 29.61 in 10.0 mi North - - 0.06 in   Overcast
12:53 PM 43.0 °F 38.2 °F 39.9 °F 89% 29.64 in 8.0 mi NE 8.1 mph - N/A   Overcast
1:37 PM 44.6 °F 42.2 °F 41.0 °F 87% 29.64 in 10.0 mi NE 4.6 mph - N/A   Overcast
1:53 PM 45.0 °F 42.6 °F 42.1 °F 90% 29.66 in 10.0 mi NE 4.6 mph - N/A   Overcast
2:14 PM 46.4 °F 45.2 °F 42.8 °F 87% 29.66 in 10.0 mi East 3.5 mph - N/A   Overcast
2:53 PM 45.0 °F 40.6 °F 42.1 °F 90% 29.69 in 10.0 mi ENE 8.1 mph - N/A   Overcast
3:20 PM 44.6 °F 40.2 °F 41.0 °F 87% 29.72 in 10.0 mi NE 8.1 mph - N/A   Overcast
3:35 PM 44.6 °F 42.2 °F 41.0 °F 87% 29.73 in 10.0 mi NE 4.6 mph - N/A   Overcast
3:45 PM 44.6 °F 40.7 °F 41.0 °F 87% 29.74 in 10.0 mi ENE 6.9 mph - N/A   Overcast
3:53 PM 46.0 °F 41.4 °F 39.9 °F 79% 29.75 in 10.0 mi North 9.2 mph - N/A   Overcast
4:53 PM 45.0 °F 37.6 °F 35.1 °F 68% 29.80 in 10.0 mi North 17.3 mph 24.2 mph N/A   Mostly Cloudy
5:53 PM 44.1 °F 38.1 °F 35.1 °F 71% 29.84 in 10.0 mi North 11.5 mph 25.3 mph N/A   Partly Cloudy
6:53 PM 43.0 °F 38.2 °F 34.0 °F 71% 29.88 in 10.0 mi North 8.1 mph - N/A   Scattered Clouds
7:53 PM 39.9 °F 35.8 °F 35.1 °F 83% 29.93 in 10.0 mi NE 5.8 mph - N/A   Overcast
8:18 PM 39.2 °F 37.0 °F 35.6 °F 87% 29.93 in 10.0 mi NE 3.5 mph - N/A   Overcast
8:34 PM 42.8 °F 37.5 °F 33.8 °F 70% 29.94 in 10.0 mi NNW 9.2 mph - N/A   Overcast
8:53 PM 43.0 °F 38.2 °F 33.1 °F 68% 29.96 in 10.0 mi North 8.1 mph 23.0 mph N/A   Overcast
9:21 PM 42.8 °F 38.6 °F 33.8 °F 70% 29.97 in 10.0 mi Variable 6.9 mph 16.1 mph N/A   Overcast
9:53 PM 42.1 °F 36.6 °F 32.0 °F 67% 29.99 in 10.0 mi North 9.2 mph 17.3 mph N/A   Overcast
10:33 PM 41.0 °F 33.9 °F 30.2 °F 65% 29.99 in 10.0 mi North 12.7 mph 18.4 mph N/A   Scattered Clouds
10:53 PM 39.9 °F 33.9 °F 30.9 °F 70% 30.00 in 10.0 mi NNW 9.2 mph 18.4 mph N/A   Clear
11:53 PM 39.0 °F 33.4 °F 30.0 °F 70% 30.03 in 10.0 mi NNW 8.1 mph 20.7 mph N/A   Clear